Time,TemperatureF,DewpointF,PressureIn,WindDirection,WindDirectionDegrees,WindSpeedMPH,WindSpeedGustMPH,Humidity,HourlyPrecipIn,Conditions,Clouds,dailyrainin,SoftwareType,DateUTC
2013-02-13 00:00:00,36.3,14.3,29.85,SW,225,0.0,0.0,40,0.00,,,0.00,WUHU21623XXSP,2013-02-13 05:00:00,
2013-02-13 00:05:00,36.5,14.4,29.85,SW,225,0.0,0.0,40,0.00,,,0.00,WUHU21623XXSP,2013-02-13 05:05:00,
2013-02-13 00:10:00,36.5,13.8,29.85,SW,225,0.0,0.0,39,0.00,,,0.00,WUHU21623XXSP,2013-02-13 05:10:00,
2013-02-13 00:15:00,36.5,13.8,29.84,SW,225,0.0,0.0,39,0.00,,,0.00,WUHU21623XXSP,2013-02-13 05:15:00,
2013-02-13 00:20:00,36.3,13.6,29.84,SW,225,0.0,0.0,39,0.00,,,0.00,WUHU21623XXSP,2013-02-13 05:20:00,
2013-02-13 00:25:00,36.3,13.6,29.84,SW,225,0.0,0.0,39,0.00,,,0.00,WUHU21623XXSP,2013-02-13 05:25:00,
2013-02-13 00:30:00,36.3,13.6,29.84,SW,225,0.0,0.0,38,0.00,,,0.00,WUHU21623XXSP,2013-02-13 05:30:00,
2013-02-13 00:35:00,36.3,13.0,29.84,SW,225,0.0,0.0,38,0.00,,,0.00,WUHU21623XXSP,2013-02-13 05:35:00,
2013-02-13 00:40:00,36.1,13.5,29.84,SW,225,0.0,0.0,39,0.00,,,0.00,WUHU21623XXSP,2013-02-13 05:40:00,
2013-02-13 00:45:00,36.1,12.8,29.83,SW,225,0.0,0.0,38,0.00,,,0.00,WUHU21623XXSP,2013-02-13 05:45:00,
2013-02-13 00:50:00,36.0,13.5,29.83,SW,225,0.0,0.0,39,0.00,,,0.00,WUHU21623XXSP,2013-02-13 05:50:00,
2013-02-13 00:55:00,36.0,13.3,29.83,SW,225,0.0,0.0,39,0.00,,,0.00,WUHU21623XXSP,2013-02-13 05:55:00,
2013-02-13 01:00:00,36.0,13.3,29.82,SW,225,0.0,0.0,39,0.00,,,0.00,WUHU21623XXSP,2013-02-13 06:00:00,
2013-02-13 01:05:00,36.3,11.7,29.81,SSW,202,0.0,0.0,36,0.00,,,0.00,WUHU21623XXSP,2013-02-13 06:05:00,
2013-02-13 01:10:00,36.7,12.0,29.81,SSE,157,0.0,0.0,36,0.00,,,0.00,WUHU21623XXSP,2013-02-13 06:10:00,
2013-02-13 01:15:00,36.9,12.2,29.81,SSE,157,0.0,0.0,36,0.00,,,0.00,WUHU21623XXSP,2013-02-13 06:15:00,
2013-02-13 01:20:00,37.0,12.3,29.80,SSE,157,0.0,0.0,36,0.00,,,0.00,WUHU21623XXSP,2013-02-13 06:20:00,
2013-02-13 01:25:00,37.0,12.3,29.81,SSE,157,0.0,0.0,36,0.00,,,0.00,WUHU21623XXSP,2013-02-13 06:25:00,
2013-02-13 01:30:00,37.0,12.3,29.81,South,180,0.0,0.0,36,0.00,,,0.00,WUHU21623XXSP,2013-02-13 06:30:00,
2013-02-13 01:35:00,37.4,11.4,29.80,SSE,157,0.0,0.0,34,0.00,,,0.00,WUHU21623XXSP,2013-02-13 06:35:00,
2013-02-13 01:40:00,37.4,12.0,29.80,SSE,157,0.0,0.0,35,0.00,,,0.00,WUHU21623XXSP,2013-02-13 06:40:00,
2013-02-13 01:45:00,37.2,11.9,29.80,SSE,157,0.0,0.0,35,0.00,,,0.00,WUHU21623XXSP,2013-02-13 06:45:00,
2013-02-13 01:50:00,37.0,11.7,29.80,SSE,157,0.0,0.0,35,0.00,,,0.00,WUHU21623XXSP,2013-02-13 06:50:00,
2013-02-13 01:55:00,37.2,11.9,29.79,SSE,157,2.0,2.0,35,0.00,,,0.00,WUHU21623XXSP,2013-02-13 06:55:00,
2013-02-13 02:00:00,37.2,11.9,29.79,SSE,157,0.0,2.0,35,0.00,,,0.00,WUHU21623XXSP,2013-02-13 07:00:00,
2013-02-13 02:05:00,37.6,12.2,29.80,SSE,157,1.8,1.8,35,0.00,,,0.00,WUHU21623XXSP,2013-02-13 07:05:00,
2013-02-13 02:10:00,37.6,12.2,29.79,SSE,157,0.0,1.8,35,0.00,,,0.00,WUHU21623XXSP,2013-02-13 07:10:00,
2013-02-13 02:15:00,37.8,12.3,29.79,SSE,157,0.0,0.0,35,0.00,,,0.00,WUHU21623XXSP,2013-02-13 07:15:00,
2013-02-13 02:20:00,37.9,12.3,29.79,SSE,157,0.0,0.0,34,0.00,,,0.00,WUHU21623XXSP,2013-02-13 07:20:00,
2013-02-13 02:25:00,38.1,12.0,29.78,East,90,2.7,2.7,34,0.00,,,0.00,WUHU21623XXSP,2013-02-13 07:25:00,
2013-02-13 02:30:00,38.3,12.2,29.78,ESE,112,0.0,2.7,34,0.00,,,0.00,WUHU21623XXSP,2013-02-13 07:30:00,
2013-02-13 02:35:00,38.3,12.2,29.78,ESE,112,1.1,1.1,34,0.00,,,0.00,WUHU21623XXSP,2013-02-13 07:35:00,
2013-02-13 02:40:00,38.3,12.2,29.78,SE,135,1.8,2.5,34,0.00,,,0.00,WUHU21623XXSP,2013-02-13 07:40:00,
2013-02-13 02:45:00,37.9,12.5,29.77,SE,135,0.0,2.5,35,0.00,,,0.00,WUHU21623XXSP,2013-02-13 07:45:00,
2013-02-13 02:50:00,37.9,12.5,29.77,SE,135,0.0,0.9,35,0.00,,,0.00,WUHU21623XXSP,2013-02-13 07:50:00,
2013-02-13 02:55:00,37.8,12.5,29.77,SE,135,0.0,0.9,36,0.00,,,0.00,WUHU21623XXSP,2013-02-13 07:55:00,
2013-02-13 03:00:00,37.6,12.8,29.77,SE,135,1.6,1.6,36,0.00,,,0.00,WUHU21623XXSP,2013-02-13 08:00:00,
2013-02-13 03:05:00,37.6,12.8,29.77,SE,135,0.0,1.6,36,0.00,,,0.00,WUHU21623XXSP,2013-02-13 08:05:00,
2013-02-13 03:10:00,37.8,13.6,29.77,ESE,112,0.0,1.6,37,0.00,,,0.00,WUHU21623XXSP,2013-02-13 08:10:00,
2013-02-13 03:15:00,37.6,14.1,29.77,East,90,0.0,0.0,38,0.00,,,0.00,WUHU21623XXSP,2013-02-13 08:15:00,
2013-02-13 03:20:00,37.2,14.0,29.76,East,90,0.0,0.0,38,0.00,,,0.00,WUHU21623XXSP,2013-02-13 08:20:00,
2013-02-13 03:25:00,37.2,13.8,29.76,ESE,112,0.0,0.0,38,0.00,,,0.00,WUHU21623XXSP,2013-02-13 08:25:00,
2013-02-13 03:30:00,37.2,13.8,29.76,ESE,112,0.0,0.0,38,0.00,,,0.00,WUHU21623XXSP,2013-02-13 08:30:00,
2013-02-13 03:35:00,37.2,13.8,29.76,SE,135,0.0,0.0,38,0.00,,,0.00,WUHU21623XXSP,2013-02-13 08:35:00,
2013-02-13 03:40:00,37.2,13.8,29.76,SSE,157,2.2,4.7,38,0.00,,,0.00,WUHU21623XXSP,2013-02-13 08:40:00,
2013-02-13 03:45:00,37.2,13.2,29.76,South,180,4.7,4.7,37,0.00,,,0.00,WUHU21623XXSP,2013-02-13 08:45:00,
2013-02-13 03:50:00,37.0,13.6,29.76,SSE,157,5.8,5.8,38,0.00,,,0.00,WUHU21623XXSP,2013-02-13 08:50:00,
2013-02-13 03:55:00,36.3,14.0,29.76,SSE,157,5.8,5.8,39,0.00,,,0.00,WUHU21623XXSP,2013-02-13 08:55:00,
2013-02-13 04:00:00,36.1,14.1,29.75,SSE,157,3.8,5.8,40,0.00,,,0.00,WUHU21623XXSP,2013-02-13 09:00:00,
2013-02-13 04:05:00,35.4,14.0,29.75,SE,135,0.0,4.7,41,0.00,,,0.00,WUHU21623XXSP,2013-02-13 09:05:00,
2013-02-13 04:10:00,35.2,14.3,29.75,SSE,157,3.1,4.7,42,0.00,,,0.00,WUHU21623XXSP,2013-02-13 09:10:00,
2013-02-13 04:15:00,35.2,14.3,29.75,ESE,112,4.3,4.3,42,0.00,,,0.00,WUHU21623XXSP,2013-02-13 09:15:00,
2013-02-13 04:20:00,35.1,14.7,29.75,SSE,157,2.9,4.3,43,0.00,,,0.00,WUHU21623XXSP,2013-02-13 09:20:00,
2013-02-13 04:25:00,34.9,14.5,29.75,SE,135,2.2,2.9,43,0.00,,,0.00,WUHU21623XXSP,2013-02-13 09:25:00,
2013-02-13 04:30:00,34.9,15.0,29.74,SSE,157,2.7,5.1,44,0.00,,,0.00,WUHU21623XXSP,2013-02-13 09:30:00,
2013-02-13 04:35:00,34.9,15.0,29.74,SSE,157,4.3,5.1,44,0.00,,,0.00,WUHU21623XXSP,2013-02-13 09:35:00,
2013-02-13 04:40:00,34.7,14.9,29.74,SSE,157,0.0,4.3,44,0.00,,,0.00,WUHU21623XXSP,2013-02-13 09:40:00,
2013-02-13 04:45:00,34.5,15.2,29.73,South,180,4.3,4.5,45,0.00,,,0.00,WUHU21623XXSP,2013-02-13 09:45:00,
2013-02-13 04:50:00,34.2,15.4,29.73,SSE,157,3.8,4.5,46,0.00,,,0.00,WUHU21623XXSP,2013-02-13 09:50:00,
2013-02-13 04:55:00,34.0,15.4,29.73,SSE,157,5.1,5.1,47,0.00,,,0.00,WUHU21623XXSP,2013-02-13 09:55:00,
2013-02-13 05:00:00,34.0,15.7,29.73,SSE,157,2.7,5.1,47,0.00,,,0.00,WUHU21623XXSP,2013-02-13 10:00:00,
2013-02-13 05:05:00,33.8,16.6,29.73,SSE,157,5.4,5.4,49,0.00,,,0.00,WUHU21623XXSP,2013-02-13 10:05:00,
2013-02-13 05:10:00,33.6,16.9,29.73,SSE,157,2.2,5.4,50,0.00,,,0.00,WUHU21623XXSP,2013-02-13 10:10:00,
2013-02-13 05:15:00,33.6,16.9,29.72,SE,135,3.4,3.8,50,0.00,,,0.00,WUHU21623XXSP,2013-02-13 10:15:00,
2013-02-13 05:20:00,33.6,17.3,29.72,SE,135,3.4,3.6,51,0.00,,,0.00,WUHU21623XXSP,2013-02-13 10:20:00,
2013-02-13 05:25:00,33.6,17.3,29.72,SSE,157,2.9,4.5,51,0.00,,,0.00,WUHU21623XXSP,2013-02-13 10:25:00,
2013-02-13 05:30:00,33.4,17.2,29.72,South,180,4.0,4.5,51,0.00,,,0.00,WUHU21623XXSP,2013-02-13 10:30:00,
2013-02-13 05:35:00,33.1,17.3,29.72,SSE,157,0.0,4.0,52,0.00,,,0.00,WUHU21623XXSP,2013-02-13 10:35:00,
2013-02-13 05:40:00,32.9,17.1,29.72,SE,135,4.0,4.0,52,0.00,,,0.00,WUHU21623XXSP,2013-02-13 10:40:00,
2013-02-13 05:45:00,32.9,17.5,29.72,SSE,157,3.1,4.0,53,0.00,,,0.00,WUHU21623XXSP,2013-02-13 10:45:00,
2013-02-13 05:50:00,32.7,17.4,29.72,SSE,157,2.0,3.1,53,0.00,,,0.00,WUHU21623XXSP,2013-02-13 10:50:00,
2013-02-13 05:55:00,32.7,17.4,29.72,ESE,112,3.1,3.1,53,0.00,,,0.00,WUHU21623XXSP,2013-02-13 10:55:00,
2013-02-13 06:00:00,32.7,17.4,29.71,SSE,157,2.2,3.1,53,0.00,,,0.00,WUHU21623XXSP,2013-02-13 11:00:00,
2013-02-13 06:05:00,32.9,18.0,29.71,SSE,157,2.5,2.5,54,0.00,,,0.00,WUHU21623XXSP,2013-02-13 11:05:00,
2013-02-13 06:10:00,32.7,17.8,29.70,South,180,3.6,3.6,54,0.00,,,0.00,WUHU21623XXSP,2013-02-13 11:10:00,
2013-02-13 06:15:00,32.7,17.8,29.70,SSE,157,2.2,4.3,54,0.00,,,0.00,WUHU21623XXSP,2013-02-13 11:15:00,
2013-02-13 06:20:00,32.7,17.8,29.70,SSE,157,3.1,4.3,54,0.00,,,0.00,WUHU21623XXSP,2013-02-13 11:20:00,
2013-02-13 06:25:00,32.5,17.7,29.71,SSE,157,1.6,3.1,54,0.00,,,0.00,WUHU21623XXSP,2013-02-13 11:25:00,
2013-02-13 06:30:00,32.5,18.1,29.72,SSE,157,2.5,3.4,55,0.00,,,0.00,WUHU21623XXSP,2013-02-13 11:30:00,
2013-02-13 06:35:00,32.7,18.2,29.71,SE,135,0.0,3.4,55,0.00,,,0.00,WUHU21623XXSP,2013-02-13 11:35:00,
2013-02-13 06:40:00,32.7,18.2,29.71,SSE,157,0.0,0.0,55,0.00,,,0.00,WUHU21623XXSP,2013-02-13 11:40:00,
2013-02-13 06:45:00,32.9,18.4,29.72,SSE,157,2.2,2.2,55,0.00,,,0.00,WUHU21623XXSP,2013-02-13 11:45:00,
2013-02-13 06:50:00,33.1,18.6,29.72,SSE,157,1.3,2.2,55,0.00,,,0.00,WUHU21623XXSP,2013-02-13 11:50:00,
2013-02-13 06:55:00,33.4,18.7,29.72,SSE,157,4.0,4.0,55,0.00,,,0.00,WUHU21623XXSP,2013-02-13 11:55:00,
2013-02-13 07:00:00,33.4,18.9,29.72,SSE,157,4.3,4.3,55,0.00,,,0.00,WUHU21623XXSP,2013-02-13 12:00:00,
2013-02-13 07:05:00,33.6,18.6,29.71,SE,135,4.7,4.7,54,0.00,,,0.00,WUHU21623XXSP,2013-02-13 12:05:00,
2013-02-13 07:10:00,33.6,18.6,29.70,SSE,157,2.2,4.7,54,0.00,,,0.00,WUHU21623XXSP,2013-02-13 12:10:00,
2013-02-13 07:15:00,33.6,18.6,29.70,ESE,112,3.8,7.2,54,0.00,,,0.00,WUHU21623XXSP,2013-02-13 12:15:00,
2013-02-13 07:20:00,33.4,18.6,29.71,SSE,157,3.6,7.2,54,0.00,,,0.00,WUHU21623XXSP,2013-02-13 12:20:00,
2013-02-13 07:25:00,33.6,18.5,29.71,SSE,157,4.9,4.9,54,0.00,,,0.00,WUHU21623XXSP,2013-02-13 12:25:00,
2013-02-13 07:30:00,33.6,18.6,29.71,ESE,112,2.2,5.6,54,0.00,,,0.00,WUHU21623XXSP,2013-02-13 12:30:00,
2013-02-13 07:35:00,33.6,18.6,29.71,SSE,157,3.4,5.6,54,0.00,,,0.00,WUHU21623XXSP,2013-02-13 12:35:00,
2013-02-13 07:40:00,33.8,18.8,29.71,SSE,157,0.0,3.4,54,0.00,,,0.00,WUHU21623XXSP,2013-02-13 12:40:00,
2013-02-13 07:45:00,33.8,18.8,29.70,SSE,157,2.2,4.3,54,0.00,,,0.00,WUHU21623XXSP,2013-02-13 12:45:00,
2013-02-13 07:50:00,33.8,18.8,29.70,ENE,67,0.0,4.3,54,0.00,,,0.00,WUHU21623XXSP,2013-02-13 12:50:00,
2013-02-13 07:55:00,33.8,18.8,29.70,SSE,157,0.9,1.6,54,0.00,,,0.00,WUHU21623XXSP,2013-02-13 12:55:00,
2013-02-13 08:00:00,33.6,18.6,29.72,SSE,157,0.0,3.6,54,0.00,,,0.00,WUHU21623XXSP,2013-02-13 13:00:00,
2013-02-13 08:05:00,33.6,19.1,29.72,SSE,157,1.8,3.6,55,0.00,,,0.00,WUHU21623XXSP,2013-02-13 13:05:00,
2013-02-13 08:10:00,33.6,19.1,29.73,SSE,157,0.7,1.8,55,0.00,,,0.00,WUHU21623XXSP,2013-02-13 13:10:00,
2013-02-13 08:15:00,33.4,18.9,29.73,South,180,0.0,3.4,55,0.00,,,0.00,WUHU21623XXSP,2013-02-13 13:15:00,
2013-02-13 08:20:00,33.4,19.3,29.73,SE,135,6.3,6.3,56,0.00,,,0.00,WUHU21623XXSP,2013-02-13 13:20:00,
2013-02-13 08:25:00,33.4,19.3,29.73,SSE,157,0.0,6.3,56,0.00,,,0.00,WUHU21623XXSP,2013-02-13 13:25:00,
2013-02-13 08:30:00,33.3,19.2,29.73,SSE,157,4.3,7.2,56,0.00,,,0.00,WUHU21623XXSP,2013-02-13 13:30:00,
2013-02-13 08:35:00,33.3,19.6,29.73,SSE,157,5.4,7.2,57,0.00,,,0.00,WUHU21623XXSP,2013-02-13 13:35:00,
2013-02-13 08:40:00,33.1,19.4,29.73,ESE,112,2.0,5.4,57,0.00,,,0.00,WUHU21623XXSP,2013-02-13 13:40:00,
2013-02-13 08:45:00,32.9,19.7,29.72,SSE,157,2.5,5.4,58,0.00,,,0.00,WUHU21623XXSP,2013-02-13 13:45:00,
2013-02-13 08:50:00,32.9,19.7,29.72,SSE,157,3.8,5.4,58,0.00,,,0.00,WUHU21623XXSP,2013-02-13 13:50:00,
2013-02-13 08:55:00,32.9,19.7,29.73,SE,135,6.9,6.9,58,0.00,,,0.00,WUHU21623XXSP,2013-02-13 13:55:00,
2013-02-13 09:00:00,32.9,19.7,29.72,SSE,157,4.0,6.9,58,0.00,,,0.00,WUHU21623XXSP,2013-02-13 14:00:00,
2013-02-13 09:05:00,33.1,19.9,29.72,SE,135,6.3,6.3,58,0.00,,,0.00,WUHU21623XXSP,2013-02-13 14:05:00,
2013-02-13 09:10:00,33.4,20.2,29.72,NE,45,4.3,6.3,58,0.00,,,0.00,WUHU21623XXSP,2013-02-13 14:10:00,
2013-02-13 09:15:00,33.6,19.9,29.72,South,180,3.8,7.4,57,0.00,,,0.00,WUHU21623XXSP,2013-02-13 14:15:00,
2013-02-13 09:20:00,33.8,20.1,29.73,SSE,157,2.5,7.4,57,0.00,,,0.00,WUHU21623XXSP,2013-02-13 14:20:00,
2013-02-13 09:25:00,33.8,20.1,29.73,SSW,202,4.0,4.0,57,0.00,,,0.00,WUHU21623XXSP,2013-02-13 14:25:00,
2013-02-13 09:30:00,33.6,19.9,29.72,SSE,157,8.3,8.3,57,0.00,,,0.00,WUHU21623XXSP,2013-02-13 14:30:00,
2013-02-13 09:35:00,33.6,19.9,29.72,ESE,112,3.6,8.3,57,0.00,,,0.00,WUHU21623XXSP,2013-02-13 14:35:00,
2013-02-13 09:40:00,33.6,19.9,29.71,ESE,112,6.9,9.2,57,0.00,,,0.00,WUHU21623XXSP,2013-02-13 14:40:00,
2013-02-13 09:45:00,33.8,19.9,29.72,SE,135,5.1,9.2,57,0.00,,,0.00,WUHU21623XXSP,2013-02-13 14:45:00,
2013-02-13 09:50:00,33.8,20.1,29.72,SSE,157,7.8,7.8,57,0.00,,,0.00,WUHU21623XXSP,2013-02-13 14:50:00,
2013-02-13 09:55:00,33.6,19.9,29.72,SSE,157,2.5,7.8,57,0.00,,,0.00,WUHU21623XXSP,2013-02-13 14:55:00,
2013-02-13 10:00:00,33.4,20.2,29.72,SSE,157,4.3,6.7,58,0.00,,,0.00,WUHU21623XXSP,2013-02-13 15:00:00,
2013-02-13 10:05:00,33.3,20.5,29.72,ESE,112,5.1,12.1,59,0.00,,,0.00,WUHU21623XXSP,2013-02-13 15:05:00,
2013-02-13 10:10:00,33.1,20.3,29.72,SSE,157,4.5,12.1,59,0.00,,,0.00,WUHU21623XXSP,2013-02-13 15:10:00,
2013-02-13 10:15:00,32.9,20.6,29.71,SE,135,4.3,4.5,60,0.00,,,0.00,WUHU21623XXSP,2013-02-13 15:15:00,
2013-02-13 10:20:00,32.7,20.4,29.71,East,90,4.7,8.1,60,0.00,,,0.00,WUHU21623XXSP,2013-02-13 15:20:00,
2013-02-13 10:25:00,32.7,20.4,29.71,SSE,157,5.1,8.1,60,0.00,,,0.00,WUHU21623XXSP,2013-02-13 15:25:00,
2013-02-13 10:30:00,32.5,20.2,29.71,SE,135,10.5,10.5,60,0.00,,,0.00,WUHU21623XXSP,2013-02-13 15:30:00,
2013-02-13 10:35:00,32.5,20.2,29.70,SSE,157,10.5,10.5,60,0.00,,,0.00,WUHU21623XXSP,2013-02-13 15:35:00,
2013-02-13 10:40:00,32.5,20.6,29.71,SSW,202,7.6,10.5,61,0.00,,,0.00,WUHU21623XXSP,2013-02-13 15:40:00,
2013-02-13 10:45:00,32.4,20.8,29.71,SSE,157,9.8,9.8,62,0.00,,,0.00,WUHU21623XXSP,2013-02-13 15:45:00,
2013-02-13 10:50:00,32.4,20.8,29.70,SE,135,2.0,9.8,62,0.00,,,0.00,WUHU21623XXSP,2013-02-13 15:50:00,
2013-02-13 10:55:00,32.5,21.0,29.70,SSE,157,5.1,8.5,62,0.00,,,0.00,WUHU21623XXSP,2013-02-13 15:55:00,
2013-02-13 11:00:00,32.9,21.3,29.69,SSE,157,2.5,8.3,62,0.00,,,0.00,WUHU21623XXSP,2013-02-13 16:00:00,
2013-02-13 11:05:00,33.6,21.9,29.69,SSE,157,10.7,10.7,62,0.00,,,0.00,WUHU21623XXSP,2013-02-13 16:05:00,
2013-02-13 11:10:00,33.6,21.6,29.69,SSE,157,6.0,11.6,61,0.00,,,0.00,WUHU21623XXSP,2013-02-13 16:10:00,
2013-02-13 11:15:00,34.0,21.6,29.68,SSE,157,4.0,11.6,60,0.00,,,0.00,WUHU21623XXSP,2013-02-13 16:15:00,
2013-02-13 11:20:00,34.2,21.7,29.68,SSW,202,7.6,10.5,60,0.00,,,0.00,WUHU21623XXSP,2013-02-13 16:20:00,
2013-02-13 11:25:00,34.0,21.6,29.68,South,180,6.0,7.6,60,0.00,,,0.00,WUHU21623XXSP,2013-02-13 16:25:00,
2013-02-13 11:30:00,34.2,21.7,29.68,South,180,6.0,6.9,60,0.00,,,0.00,WUHU21623XXSP,2013-02-13 16:30:00,
2013-02-13 11:35:00,34.2,21.7,29.67,South,180,6.0,6.0,60,0.00,,,0.00,WUHU21623XXSP,2013-02-13 16:35:00,
2013-02-13 11:40:00,34.2,21.7,29.68,South,180,6.0,6.0,60,0.00,,,0.00,WUHU21623XXSP,2013-02-13 16:40:00,
2013-02-13 11:45:00,34.2,21.7,29.67,South,180,6.0,6.0,60,0.00,,,0.00,WUHU21623XXSP,2013-02-13 16:45:00,
2013-02-13 11:50:00,34.2,21.7,29.67,South,180,6.0,6.0,60,0.00,,,0.00,WUHU21623XXSP,2013-02-13 16:50:00,
2013-02-13 12:02:00,33.1,21.1,29.65,SSW,202,5.8,5.8,61,0.00,,,0.00,WUHU21623XXSP,2013-02-13 17:02:00,
2013-02-13 12:07:00,32.7,21.5,29.65,SSE,157,7.8,7.8,63,0.00,,,0.00,WUHU21623XXSP,2013-02-13 17:07:00,
2013-02-13 12:12:00,32.7,21.5,29.65,SE,135,4.5,7.8,64,0.00,,,0.00,WUHU21623XXSP,2013-02-13 17:12:00,
2013-02-13 12:17:00,32.7,22.2,29.65,SW,225,2.5,5.1,65,0.00,,,0.00,WUHU21623XXSP,2013-02-13 17:17:00,
2013-02-13 12:22:00,32.5,22.8,29.64,SSE,157,4.5,5.1,67,0.00,,,0.00,WUHU21623XXSP,2013-02-13 17:22:00,
2013-02-13 12:27:00,32.2,22.8,29.65,ESE,112,3.1,5.6,68,0.00,,,0.00,WUHU21623XXSP,2013-02-13 17:27:00,
2013-02-13 12:32:00,31.6,23.0,29.64,East,90,6.0,6.0,70,0.00,,,0.00,WUHU21623XXSP,2013-02-13 17:32:00,
2013-02-13 12:37:00,31.6,23.6,29.64,SE,135,2.2,6.0,72,0.00,,,0.00,WUHU21623XXSP,2013-02-13 17:37:00,
2013-02-13 12:42:00,31.3,23.3,29.63,SE,135,0.0,2.2,72,0.00,,,0.00,WUHU21623XXSP,2013-02-13 17:42:00,
2013-02-13 12:47:00,31.3,23.9,29.63,SSE,157,1.3,2.0,74,0.00,,,0.00,WUHU21623XXSP,2013-02-13 17:47:00,
2013-02-13 12:52:00,30.9,23.9,29.63,South,180,0.0,5.4,75,0.00,,,0.00,WUHU21623XXSP,2013-02-13 17:52:00,
2013-02-13 12:57:00,30.4,23.4,29.62,SE,135,0.9,5.4,75,0.00,,,0.00,WUHU21623XXSP,2013-02-13 17:57:00,
2013-02-13 13:02:00,29.8,23.5,29.62,ESE,112,0.0,3.4,77,0.00,,,0.00,WUHU21623XXSP,2013-02-13 18:02:00,
2013-02-13 13:07:00,29.7,23.9,29.61,SSE,157,1.8,3.4,79,0.00,,,0.00,WUHU21623XXSP,2013-02-13 18:07:00,
2013-02-13 13:12:00,29.5,23.8,29.61,SE,135,0.0,1.8,80,0.00,,,0.00,WUHU21623XXSP,2013-02-13 18:12:00,
2013-02-13 13:17:00,30.0,24.4,29.60,NW,315,0.0,1.8,80,0.00,,,0.00,WUHU21623XXSP,2013-02-13 18:17:00,
2013-02-13 13:22:00,30.4,25.6,29.60,ENE,67,0.0,0.0,82,0.00,,,0.00,WUHU21623XXSP,2013-02-13 18:22:00,
2013-02-13 13:27:00,30.7,25.9,29.59,NNE,22,0.0,0.0,82,0.00,,,0.00,WUHU21623XXSP,2013-02-13 18:27:00,
2013-02-13 13:32:00,30.7,25.9,29.59,NE,45,0.0,0.0,82,0.00,,,0.00,WUHU21623XXSP,2013-02-13 18:32:00,
2013-02-13 13:37:00,31.1,26.6,29.58,NNE,22,0.0,0.0,83,0.00,,,0.00,WUHU21623XXSP,2013-02-13 18:37:00,
2013-02-13 13:42:00,31.3,26.7,29.57,ESE,112,0.0,0.0,83,0.00,,,0.00,WUHU21623XXSP,2013-02-13 18:42:00,
2013-02-13 13:47:00,31.3,27.0,29.57,ESE,112,2.2,2.2,84,0.00,,,0.00,WUHU21623XXSP,2013-02-13 18:47:00,
2013-02-13 13:52:00,31.6,27.4,29.57,NW,315,0.0,2.2,84,0.00,,,0.00,WUHU21623XXSP,2013-02-13 18:52:00,
2013-02-13 13:57:00,31.6,27.4,29.57,SSW,202,0.0,2.2,84,0.00,,,0.00,WUHU21623XXSP,2013-02-13 18:57:00,
2013-02-13 14:02:00,31.8,27.6,29.56,ENE,67,0.0,0.0,84,0.00,,,0.00,WUHU21623XXSP,2013-02-13 19:02:00,
2013-02-13 14:07:00,31.8,27.9,29.56,ESE,112,0.0,0.0,85,0.00,,,0.00,WUHU21623XXSP,2013-02-13 19:07:00,
2013-02-13 14:12:00,31.8,27.9,29.55,WSW,247,0.0,0.0,85,0.00,,,0.00,WUHU21623XXSP,2013-02-13 19:12:00,
2013-02-13 14:17:00,31.8,28.1,29.55,South,180,2.5,2.5,86,0.00,,,0.00,WUHU21623XXSP,2013-02-13 19:17:00,
2013-02-13 14:22:00,31.8,28.1,29.55,ESE,112,3.6,3.6,86,0.00,,,0.00,WUHU21623XXSP,2013-02-13 19:22:00,
2013-02-13 14:27:00,32.2,28.5,29.55,ESE,112,4.3,4.3,86,0.00,,,0.00,WUHU21623XXSP,2013-02-13 19:27:00,
2013-02-13 14:32:00,32.2,28.5,29.55,SW,225,0.0,4.3,86,0.00,,,0.00,WUHU21623XXSP,2013-02-13 19:32:00,
2013-02-13 14:37:00,32.5,29.1,29.54,ESE,112,1.6,4.3,87,0.00,,,0.00,WUHU21623XXSP,2013-02-13 19:37:00,
2013-02-13 14:42:00,32.7,29.1,29.55,WSW,247,3.1,3.1,87,0.00,,,0.00,WUHU21623XXSP,2013-02-13 19:42:00,
2013-02-13 14:47:00,32.7,29.3,29.55,SSE,157,0.9,3.1,87,0.00,,,0.00,WUHU21623XXSP,2013-02-13 19:47:00,
2013-02-13 14:52:00,32.7,29.3,29.55,SE,135,2.2,2.2,87,0.00,,,0.00,WUHU21623XXSP,2013-02-13 19:52:00,
2013-02-13 14:57:00,32.5,29.3,29.55,SE,135,0.9,2.2,87,0.00,,,0.00,WUHU21623XXSP,2013-02-13 19:57:00,
2013-02-13 15:02:00,32.7,29.6,29.54,South,180,3.1,3.1,88,0.00,,,0.00,WUHU21623XXSP,2013-02-13 20:02:00,
2013-02-13 15:07:00,32.5,29.4,29.54,SE,135,0.0,5.1,88,0.00,,,0.00,WUHU21623XXSP,2013-02-13 20:07:00,
2013-02-13 15:12:00,32.5,29.4,29.53,South,180,0.0,5.1,88,0.00,,,0.00,WUHU21623XXSP,2013-02-13 20:12:00,
2013-02-13 15:17:00,32.7,29.6,29.53,ESE,112,0.0,0.0,88,0.00,,,0.00,WUHU21623XXSP,2013-02-13 20:17:00,
2013-02-13 15:22:00,32.5,29.4,29.54,NW,315,0.0,0.0,88,0.00,,,0.00,WUHU21623XXSP,2013-02-13 20:22:00,
2013-02-13 15:27:00,32.7,29.8,29.53,East,90,0.0,0.0,89,0.00,,,0.00,WUHU21623XXSP,2013-02-13 20:27:00,
2013-02-13 15:32:00,32.7,29.8,29.53,SW,225,0.0,2.0,89,0.00,,,0.00,WUHU21623XXSP,2013-02-13 20:32:00,
2013-02-13 15:37:00,32.7,29.8,29.53,WSW,247,0.0,2.0,89,0.00,,,0.00,WUHU21623XXSP,2013-02-13 20:37:00,
2013-02-13 15:42:00,32.7,29.8,29.53,SSW,202,0.0,0.0,89,0.00,,,0.00,WUHU21623XXSP,2013-02-13 20:42:00,
2013-02-13 15:47:00,32.7,29.8,29.54,WSW,247,0.0,1.6,89,0.00,,,0.00,WUHU21623XXSP,2013-02-13 20:47:00,
2013-02-13 15:52:00,32.7,29.8,29.53,South,180,0.0,1.8,89,0.00,,,0.00,WUHU21623XXSP,2013-02-13 20:52:00,
2013-02-13 15:57:00,32.7,29.8,29.53,NNW,337,0.0,1.8,89,0.00,,,0.00,WUHU21623XXSP,2013-02-13 20:57:00,
2013-02-13 16:02:00,32.7,29.8,29.53,ESE,112,0.0,0.0,89,0.00,,,0.00,WUHU21623XXSP,2013-02-13 21:02:00,
2013-02-13 16:07:00,32.7,29.8,29.53,ESE,112,0.0,0.0,89,0.00,,,0.00,WUHU21623XXSP,2013-02-13 21:07:00,
2013-02-13 16:12:00,33.1,30.2,29.53,ENE,67,0.0,0.0,89,0.00,,,0.00,WUHU21623XXSP,2013-02-13 21:12:00,
2013-02-13 16:17:00,33.1,30.2,29.53,SSE,157,0.0,0.0,89,0.00,,,0.00,WUHU21623XXSP,2013-02-13 21:17:00,
2013-02-13 16:22:00,32.9,30.0,29.52,SE,135,0.0,0.0,89,0.00,,,0.00,WUHU21623XXSP,2013-02-13 21:22:00,
2013-02-13 16:27:00,32.9,30.0,29.53,SSE,157,0.0,0.0,89,0.00,,,0.00,WUHU21623XXSP,2013-02-13 21:27:00,
2013-02-13 16:32:00,33.1,30.2,29.53,ESE,112,0.0,0.0,89,0.00,,,0.00,WUHU21623XXSP,2013-02-13 21:32:00,
2013-02-13 16:37:00,32.7,29.8,29.52,SSE,157,0.0,0.0,89,0.00,,,0.00,WUHU21623XXSP,2013-02-13 21:37:00,
2013-02-13 16:42:00,32.7,29.8,29.52,SSE,157,0.0,0.0,89,0.00,,,0.00,WUHU21623XXSP,2013-02-13 21:42:00,
2013-02-13 16:47:00,32.7,29.8,29.52,SSE,157,0.0,0.0,90,0.00,,,0.00,WUHU21623XXSP,2013-02-13 21:47:00,
2013-02-13 16:52:00,32.7,30.0,29.52,SE,135,0.0,0.0,90,0.00,,,0.00,WUHU21623XXSP,2013-02-13 21:52:00,
2013-02-13 16:57:00,32.5,30.0,29.52,South,180,0.0,0.0,90,0.00,,,0.00,WUHU21623XXSP,2013-02-13 21:57:00,
2013-02-13 17:02:00,32.7,30.1,29.52,SE,135,0.0,0.0,90,0.00,,,0.00,WUHU21623XXSP,2013-02-13 22:02:00,
2013-02-13 17:07:00,32.5,30.0,29.52,South,180,0.0,5.4,90,0.00,,,0.00,WUHU21623XXSP,2013-02-13 22:07:00,
2013-02-13 17:12:00,32.5,30.0,29.51,SE,135,4.0,5.4,90,0.00,,,0.00,WUHU21623XXSP,2013-02-13 22:12:00,
2013-02-13 17:17:00,32.4,29.8,29.52,SSW,202,3.1,4.0,90,0.00,,,0.00,WUHU21623XXSP,2013-02-13 22:17:00,
2013-02-13 17:22:00,32.4,29.8,29.52,NW,315,0.0,3.1,90,0.00,,,0.00,WUHU21623XXSP,2013-02-13 22:22:00,
2013-02-13 17:27:00,32.5,30.0,29.52,NNE,22,2.9,3.1,90,0.00,,,0.00,WUHU21623XXSP,2013-02-13 22:27:00,
2013-02-13 17:32:00,32.4,29.8,29.52,SE,135,3.4,3.4,90,0.00,,,0.00,WUHU21623XXSP,2013-02-13 22:32:00,
2013-02-13 17:37:00,32.2,29.6,29.52,SSE,157,0.0,3.4,90,0.00,,,0.00,WUHU21623XXSP,2013-02-13 22:37:00,
2013-02-13 17:42:00,32.2,29.6,29.52,SSE,157,0.0,2.2,90,0.00,,,0.00,WUHU21623XXSP,2013-02-13 22:42:00,
2013-02-13 17:47:00,32.2,29.6,29.52,SW,225,2.2,2.2,90,0.00,,,0.00,WUHU21623XXSP,2013-02-13 22:47:00,
2013-02-13 17:52:00,32.0,29.3,29.52,SW,225,2.2,2.2,90,0.00,,,0.00,WUHU21623XXSP,2013-02-13 22:52:00,
2013-02-13 17:57:00,31.8,29.3,29.52,WSW,247,2.0,2.2,90,0.00,,,0.00,WUHU21623XXSP,2013-02-13 22:57:00,
2013-02-13 18:02:00,31.8,29.3,29.53,WNW,292,3.8,3.8,90,0.00,,,0.00,WUHU21623XXSP,2013-02-13 23:02:00,
2013-02-13 18:07:00,31.8,29.3,29.53,SW,225,0.9,3.8,90,0.00,,,0.00,WUHU21623XXSP,2013-02-13 23:07:00,
2013-02-13 18:12:00,31.8,29.3,29.53,NW,315,0.0,0.9,90,0.00,,,0.00,WUHU21623XXSP,2013-02-13 23:12:00,
2013-02-13 18:17:00,31.8,29.3,29.53,NW,315,0.0,0.9,90,0.00,,,0.00,WUHU21623XXSP,2013-02-13 23:17:00,
2013-02-13 18:22:00,31.8,29.3,29.53,NW,315,5.1,5.1,90,0.00,,,0.00,WUHU21623XXSP,2013-02-13 23:22:00,
2013-02-13 18:27:00,31.5,28.9,29.54,NW,315,0.0,5.1,90,0.00,,,0.00,WUHU21623XXSP,2013-02-13 23:27:00,
2013-02-13 18:32:00,30.4,28.2,29.54,NNW,337,5.4,5.4,90,0.00,,,0.00,WUHU21623XXSP,2013-02-13 23:32:00,
2013-02-13 18:37:00,30.0,27.8,29.53,NNW,337,5.4,5.4,91,0.00,,,0.00,WUHU21623XXSP,2013-02-13 23:37:00,
2013-02-13 18:42:00,29.5,27.2,29.54,NNW,337,5.1,5.4,91,0.00,,,0.00,WUHU21623XXSP,2013-02-13 23:42:00,
2013-02-13 18:47:00,29.1,26.9,29.54,NNW,337,3.6,5.1,91,0.00,,,0.00,WUHU21623XXSP,2013-02-13 23:47:00,
2013-02-13 18:52:00,29.1,26.9,29.54,NNW,337,2.7,3.6,91,0.00,,,0.00,WUHU21623XXSP,2013-02-13 23:52:00,
2013-02-13 18:57:00,29.1,26.9,29.55,NNW,337,4.0,4.0,91,0.00,,,0.00,WUHU21623XXSP,2013-02-13 23:57:00,
2013-02-13 19:02:00,28.8,26.5,29.57,NNW,337,8.5,8.5,91,0.00,,,0.00,WUHU21623XXSP,2013-02-14 00:02:00,
2013-02-13 19:07:00,28.2,26.3,29.57,NNW,337,3.8,8.5,91,0.00,,,0.00,WUHU21623XXSP,2013-02-14 00:07:00,
2013-02-13 19:12:00,28.0,26.0,29.57,NNW,337,3.8,3.8,91,0.00,,,0.00,WUHU21623XXSP,2013-02-14 00:12:00,
2013-02-13 19:17:00,27.7,25.4,29.57,NNW,337,0.0,8.3,91,0.00,,,0.00,WUHU21623XXSP,2013-02-14 00:17:00,
2013-02-13 19:22:00,27.7,25.4,29.57,NNW,337,8.9,8.9,91,0.00,,,0.00,WUHU21623XXSP,2013-02-14 00:22:00,
2013-02-13 19:27:00,27.5,25.4,29.57,NNW,337,6.7,8.9,91,0.00,,,0.00,WUHU21623XXSP,2013-02-14 00:27:00,
2013-02-13 19:32:00,27.5,25.2,29.57,NNW,337,4.9,8.9,91,0.00,,,0.00,WUHU21623XXSP,2013-02-14 00:32:00,
2013-02-13 19:37:00,27.5,25.2,29.58,NNW,337,8.1,8.1,91,0.00,,,0.00,WUHU21623XXSP,2013-02-14 00:37:00,
2013-02-13 19:42:00,27.3,25.1,29.57,NNW,337,11.4,11.4,91,0.00,,,0.00,WUHU21623XXSP,2013-02-14 00:42:00,
2013-02-13 19:47:00,27.3,25.1,29.57,NNW,337,6.3,11.4,91,0.00,,,0.00,WUHU21623XXSP,2013-02-14 00:47:00,
2013-02-13 19:52:00,27.1,24.9,29.57,NNW,337,8.7,8.7,91,0.00,,,0.00,WUHU21623XXSP,2013-02-14 00:52:00,
2013-02-13 19:57:00,27.1,24.9,29.57,NNW,337,0.0,8.7,91,0.00,,,0.00,WUHU21623XXSP,2013-02-14 00:57:00,
2013-02-13 20:02:00,27.3,25.1,29.57,NNW,337,3.1,3.6,91,0.00,,,0.00,WUHU21623XXSP,2013-02-14 01:02:00,
2013-02-13 20:07:00,27.3,25.1,29.57,NNW,337,3.1,3.6,91,0.00,,,0.00,WUHU21623XXSP,2013-02-14 01:07:00,
2013-02-13 20:12:00,27.3,25.1,29.57,NNW,337,3.1,3.1,91,0.00,,,0.00,WUHU21623XXSP,2013-02-14 01:12:00,
2013-02-13 20:17:00,27.3,25.1,29.57,NNW,337,3.4,8.3,91,0.00,,,0.00,WUHU21623XXSP,2013-02-14 01:17:00,
2013-02-13 20:22:00,27.3,25.1,29.57,NNW,337,3.8,8.3,91,0.00,,,0.00,WUHU21623XXSP,2013-02-14 01:22:00,
2013-02-13 20:27:00,27.3,25.1,29.57,NNW,337,9.2,9.2,91,0.00,,,0.00,WUHU21623XXSP,2013-02-14 01:27:00,
2013-02-13 20:32:00,27.3,25.1,29.57,NNW,337,13.0,13.0,91,0.00,,,0.00,WUHU21623XXSP,2013-02-14 01:32:00,
2013-02-13 20:37:00,27.5,25.2,29.57,NNW,337,3.6,13.0,91,0.00,,,0.00,WUHU21623XXSP,2013-02-14 01:37:00,
2013-02-13 20:42:00,27.5,25.2,29.58,NNW,337,4.5,6.3,91,0.00,,,0.00,WUHU21623XXSP,2013-02-14 01:42:00,
2013-02-13 20:47:00,27.7,25.4,29.58,NNW,337,10.3,10.3,91,0.00,,,0.00,WUHU21623XXSP,2013-02-14 01:47:00,
2013-02-13 20:52:00,27.7,25.4,29.58,NNW,337,10.3,10.3,91,0.00,,,0.00,WUHU21623XXSP,2013-02-14 01:52:00,
2013-02-13 20:57:00,28.0,26.0,29.59,NNW,337,8.5,10.3,92,0.00,,,0.00,WUHU21623XXSP,2013-02-14 01:57:00,
2013-02-13 21:02:00,28.2,26.2,29.58,NNW,337,12.5,12.5,91,0.00,,,0.00,WUHU21623XXSP,2013-02-14 02:02:00,
2013-02-13 21:07:00,28.2,26.0,29.58,NNW,337,10.5,12.5,91,0.00,,,0.00,WUHU21623XXSP,2013-02-14 02:07:00,
2013-02-13 21:12:00,28.2,26.0,29.59,NNW,337,8.7,10.5,91,0.00,,,0.00,WUHU21623XXSP,2013-02-14 02:12:00,
2013-02-13 21:17:00,28.2,26.0,29.59,NNW,337,4.7,8.9,91,0.00,,,0.00,WUHU21623XXSP,2013-02-14 02:17:00,
2013-02-13 21:22:00,28.2,26.0,29.59,NNW,337,11.9,11.9,91,0.00,,,0.00,WUHU21623XXSP,2013-02-14 02:22:00,
2013-02-13 21:27:00,28.2,26.0,29.60,NNW,337,11.9,11.9,91,0.00,,,0.00,WUHU21623XXSP,2013-02-14 02:27:00,
2013-02-13 21:32:00,28.2,26.0,29.60,NNW,337,8.7,11.9,91,0.00,,,0.00,WUHU21623XXSP,2013-02-14 02:32:00,
2013-02-13 21:37:00,28.0,25.8,29.60,NNW,337,6.9,11.9,91,0.00,,,0.00,WUHU21623XXSP,2013-02-14 02:37:00,
2013-02-13 21:42:00,28.0,25.8,29.60,NNW,337,6.7,8.7,91,0.00,,,0.00,WUHU21623XXSP,2013-02-14 02:42:00,
2013-02-13 21:47:00,28.0,25.8,29.60,NNW,337,11.4,11.4,91,0.00,,,0.00,WUHU21623XXSP,2013-02-14 02:47:00,
2013-02-13 21:52:00,28.0,25.8,29.60,NNW,337,6.3,11.4,91,0.00,,,0.00,WUHU21623XXSP,2013-02-14 02:52:00,
2013-02-13 21:57:00,28.0,25.8,29.60,NNW,337,12.8,12.8,91,0.00,,,0.00,WUHU21623XXSP,2013-02-14 02:57:00,
2013-02-13 22:02:00,28.0,25.8,29.61,NNW,337,11.0,12.8,91,0.00,,,0.00,WUHU21623XXSP,2013-02-14 03:02:00,
2013-02-13 22:07:00,28.0,25.8,29.60,NNW,337,13.2,13.2,91,0.00,,,0.00,WUHU21623XXSP,2013-02-14 03:07:00,
2013-02-13 22:12:00,28.0,25.8,29.60,NNW,337,13.0,13.2,91,0.00,,,0.00,WUHU21623XXSP,2013-02-14 03:12:00,
2013-02-13 22:17:00,28.0,25.6,29.60,NNW,337,8.5,13.0,91,0.00,,,0.00,WUHU21623XXSP,2013-02-14 03:17:00,
2013-02-13 22:22:00,28.0,25.8,29.60,NNW,337,11.4,13.0,91,0.00,,,0.00,WUHU21623XXSP,2013-02-14 03:22:00,
2013-02-13 22:27:00,28.0,25.6,29.61,NNW,337,11.4,11.4,91,0.00,,,0.00,WUHU21623XXSP,2013-02-14 03:27:00,
2013-02-13 22:32:00,28.0,25.8,29.61,NNW,337,9.2,11.4,91,0.00,,,0.00,WUHU21623XXSP,2013-02-14 03:32:00,
2013-02-13 22:37:00,28.0,25.8,29.62,NNW,337,6.7,10.3,91,0.00,,,0.00,WUHU21623XXSP,2013-02-14 03:37:00,
2013-02-13 22:42:00,28.0,25.8,29.62,NNW,337,10.3,10.3,91,0.00,,,0.00,WUHU21623XXSP,2013-02-14 03:42:00,
2013-02-13 22:47:00,28.0,25.8,29.62,NNW,337,6.9,11.9,91,0.00,,,0.00,WUHU21623XXSP,2013-02-14 03:47:00,
2013-02-13 22:52:00,28.0,25.8,29.62,NNW,337,6.9,11.9,91,0.00,,,0.00,WUHU21623XXSP,2013-02-14 03:52:00,
2013-02-13 22:57:00,28.0,25.8,29.62,NNW,337,6.9,6.9,91,0.00,,,0.00,WUHU21623XXSP,2013-02-14 03:57:00,
2013-02-13 23:02:00,28.0,25.8,29.62,NNW,337,6.5,6.9,91,0.00,,,0.00,WUHU21623XXSP,2013-02-14 04:02:00,
2013-02-13 23:07:00,28.0,25.5,29.62,NNW,337,4.9,12.8,90,0.00,,,0.00,WUHU21623XXSP,2013-02-14 04:07:00,
2013-02-13 23:12:00,28.2,25.5,29.63,NNW,337,16.3,16.3,90,0.00,,,0.00,WUHU21623XXSP,2013-02-14 04:12:00,
2013-02-13 23:17:00,28.2,25.5,29.63,NNW,337,6.9,16.3,90,0.00,,,0.00,WUHU21623XXSP,2013-02-14 04:17:00,
2013-02-13 23:22:00,28.2,25.4,29.62,NNW,337,6.0,6.9,89,0.00,,,0.00,WUHU21623XXSP,2013-02-14 04:22:00,
2013-02-13 23:27:00,28.2,25.4,29.63,NNW,337,8.7,8.7,89,0.00,,,0.00,WUHU21623XXSP,2013-02-14 04:27:00,
2013-02-13 23:32:00,28.0,25.4,29.63,NNW,337,2.9,11.4,89,0.00,,,0.00,WUHU21623XXSP,2013-02-14 04:32:00,
2013-02-13 23:37:00,28.2,25.4,29.64,NNW,337,11.9,11.9,89,0.00,,,0.00,WUHU21623XXSP,2013-02-14 04:37:00,
2013-02-13 23:42:00,28.2,25.4,29.64,NNW,337,15.4,15.4,89,0.00,,,0.00,WUHU21623XXSP,2013-02-14 04:42:00,
2013-02-13 23:47:00,28.2,25.4,29.64,NNW,337,8.1,15.4,89,0.00,,,0.00,WUHU21623XXSP,2013-02-14 04:47:00,
2013-02-13 23:52:00,28.2,25.4,29.64,NNW,337,10.5,10.5,89,0.00,,,0.00,WUHU21623XXSP,2013-02-14 04:52:00,
2013-02-13 23:57:00,28.2,25.4,29.65,NNW,337,17.9,17.9,89,0.00,,,0.00,WUHU21623XXSP,2013-02-14 04:57:00,